Weather Roundup
Issued by NWS Chicago, IL

Home | Current Version | Previous Version | Graphics & Text | Print | Product List | Glossary On
Versions: 1 2 3 4 5 6 7 8 9 10 11 12 13 14 15 16 17 18 19 20 21 22 23 24 25 26 27 28 29 30 31 32 33 34 35 36 37 38 39 40 41 42 43 44 45 46 47 48 49 50
797
NZUS59 KLOT 061003
HRRLOT

CHICAGO AREA WEATHER ROUNDUP
NATIONAL WEATHER SERVICE CHICAGO/ROMEOVILLE IL
500 AM CDT FRI MAY 06 2016

NOTE: "FAIR" INDICATES FEW OR NO CLOUDS BELOW 12,000 FEET WITH NO
SIGNIFICANT WEATHER AND/OR OBSTRUCTIONS TO VISIBILITY.

* THESE STATIONS ARE NOT UNDER NWS QUALITY CONTROL. THEY ALSO MAY NOT
  REPORT WEATHER SUCH AS PRECIPITATION OR FOG.

ILZ005-006-012>014-019>023-061100-
NORTHEAST ILLINOIS

CITY           SKY/WX    TMP DP  RH WIND       PRES   REMARKS
OHARE          CLOUDY    48  42  80 W8        29.96S
MIDWAY         CLOUDY    49  40  71 SW7       29.98R
AURORA         CLOUDY    42  39  89 CALM      29.99R
LANSING*       MOCLDY    40  39  97 CALM      29.98R
WAUKEGAN       CLOUDY    48  41  76 CALM      29.95S
DUPAGE AIRPORT CLOUDY    46  41  82 CALM      29.97S
WHEELING       CLOUDY    47  40  76 CALM      29.98R
$$

WIZ051-052-058>065-066-070>072-061100-
SOUTHEAST WISCONSIN

CITY           SKY/WX    TMP DP  RH WIND       PRES   REMARKS
MILWAUKEE      MOCLDY    52  39  61 W3        29.94S
KENOSHA*       MOCLDY    46  41  82 W6        29.95S
RACINE*        CLOUDY    48  39  71 SW3       29.95F
BURLINGTON     CLOUDY    47  41  79 S3        29.96R
$$

INZ001>003-010>013-019-020-061100-
NORTHWEST INDIANA

CITY           SKY/WX    TMP DP  RH WIND       PRES   REMARKS
GARY*          MOCLDY    41  41 100 CALM      29.99R
MICHIGAN CITY* NOT AVBL
RENSSELAER*    NOT AVBL
VALPARAISO     CLEAR     38  37  97 CALM      29.98S
$$

LMZ740>746-061100-
SOUTHERN LAKE MICHIGAN

STATION/POSITION TIME  SKY/WX   TEMP WIND        PRES    VSBY
                                AIR  DIR/SP/G
                 (UTC)          (F)  (DEG/KT/KT) (MB)    (MI)
HARRISON CRIB    0900            51  180/  2/  3   N/A
BURNHAM HARBOR   1000            51  260/  7/  7   N/A
CALUMET HARBOR   0900            45   CALM  /  2 1014.3S
BURNS HARBOR     0901            44  190/  4/  5 1015.2F
MICHIGAN CITY    0900            42  140/  4/  5   N/A
$$

ABBREVIATIONS USED IN REMARKS
   TC - TEMPERATURE IN CELSIUS
  WCI - WIND CHILL INDEX
   HX - HEAT INDEX
  VSB - VISIBILITY
$$




USA.gov is the U.S. government's official web portal to all federal, state and local government web resources and services.